SWA1955 KLAS-KMDW

Flight info

Callsign SWA1955
Flight time N/A
Altitude 37000
Route GIDGT2 TUKRR CEZ HELPS RYLIE KIDER J96 IRK ENDEE6
Aircraft B737/M-SDE2E3FGHIRWXY/LB1

Departure

Time N/A
Airport Harry Reid International Airport (KLAS)

Arrival

Time 2026-05-08 00:21
Airport Chicago Midway International Airport (KMDW)
Time Latitude Longitude Altitude Speed Heading
2026-05-07 23:48 40.50965 -90.95757 30174 ft 554 kts 66°
2026-05-07 23:48 40.52390 -90.91085 29673 ft 546 kts 66°
2026-05-07 23:48 40.53789 -90.86492 29226 ft 536 kts 66°
2026-05-07 23:48 40.55160 -90.81980 28836 ft 528 kts 66°
2026-05-07 23:49 40.56516 -90.77520 28423 ft 521 kts 66°
2026-05-07 23:49 40.57855 -90.73108 28018 ft 518 kts 66°
2026-05-07 23:49 40.59191 -90.68703 27629 ft 519 kts 66°
2026-05-07 23:49 40.60528 -90.64287 27222 ft 518 kts 66°
2026-05-07 23:50 40.61850 -90.59911 26813 ft 512 kts 66°
2026-05-07 23:50 40.63157 -90.55576 26428 ft 507 kts 65°
2026-05-07 23:50 40.64451 -90.51274 26026 ft 502 kts 65°
2026-05-07 23:50 40.65730 -90.47016 25640 ft 498 kts 65°
2026-05-07 23:51 40.66996 -90.42797 25258 ft 493 kts 65°
2026-05-07 23:51 40.68253 -90.38603 24880 ft 489 kts 65°
2026-05-07 23:51 40.69482 -90.34497 24515 ft 486 kts 65°
2026-05-07 23:51 40.70714 -90.30372 24144 ft 482 kts 65°
2026-05-07 23:52 40.71937 -90.26266 23773 ft 479 kts 65°
2026-05-07 23:52 40.73147 -90.22192 23346 ft 476 kts 65°
2026-05-07 23:52 40.74347 -90.18145 22934 ft 472 kts 65°
2026-05-07 23:52 40.75535 -90.14134 22564 ft 468 kts 65°
2026-05-07 23:53 40.76712 -90.10154 22203 ft 464 kts 65°
2026-05-07 23:53 40.77864 -90.06253 21847 ft 460 kts 65°
2026-05-07 23:53 40.78382 -90.04497 21677 ft 458 kts 65°
2026-05-07 23:53 40.79534 -90.00587 21320 ft 455 kts 65°
2026-05-07 23:54 40.80675 -89.96712 20970 ft 452 kts 65°
2026-05-07 23:54 40.81809 -89.92854 20611 ft 449 kts 65°
2026-05-07 23:54 40.82708 -89.89793 20355 ft 447 kts 65°
2026-05-07 23:54 40.83812 -89.86026 20029 ft 445 kts 65°
2026-05-07 23:55 40.84924 -89.82232 19687 ft 442 kts 65°
2026-05-07 23:55 40.86031 -89.78444 19349 ft 440 kts 65°
2026-05-07 23:55 40.87186 -89.74711 19000 ft 436 kts 60°
2026-05-07 23:55 40.88626 -89.71216 18646 ft 432 kts 54°
2026-05-07 23:56 40.90164 -89.67817 18279 ft 430 kts 54°
2026-05-07 23:56 40.91711 -89.64448 17906 ft 426 kts 54°
2026-05-07 23:56 40.93224 -89.61111 17500 ft 420 kts 54°
2026-05-07 23:56 40.94692 -89.57820 17137 ft 411 kts 55°
2026-05-07 23:57 40.96119 -89.54587 16878 ft 403 kts 55°
2026-05-07 23:57 40.97521 -89.51398 16544 ft 400 kts 55°
2026-05-07 23:57 40.98916 -89.48223 16213 ft 397 kts 55°
2026-05-07 23:57 41.00299 -89.45069 15845 ft 395 kts 55°
2026-05-07 23:58 41.01672 -89.41936 15481 ft 393 kts 55°
2026-05-07 23:58 41.03043 -89.38804 15121 ft 391 kts 56°
2026-05-07 23:58 41.04403 -89.35692 14757 ft 389 kts 56°
2026-05-07 23:58 41.05755 -89.32599 14397 ft 387 kts 56°
2026-05-07 23:59 41.07093 -89.29529 14029 ft 381 kts 56°
2026-05-07 23:59 41.08405 -89.26518 13651 ft 374 kts 56°
2026-05-07 23:59 41.09693 -89.23557 13275 ft 368 kts 56°
2026-05-07 23:59 41.10967 -89.20631 12919 ft 365 kts 56°
2026-05-08 00:00 41.12216 -89.17760 12580 ft 363 kts 56°
2026-05-08 00:00 41.13473 -89.14868 12257 ft 360 kts 56°
2026-05-08 00:00 41.14714 -89.12007 11913 ft 357 kts 56°
2026-05-08 00:00 41.15949 -89.09157 11571 ft 355 kts 56°
2026-05-08 00:01 41.17172 -89.06332 11242 ft 352 kts 56°
2026-05-08 00:01 41.18379 -89.03541 10911 ft 344 kts 56°
2026-05-08 00:01 41.19551 -89.00826 10597 ft 336 kts 56°
2026-05-08 00:01 41.20698 -88.98167 10285 ft 328 kts 55°
2026-05-08 00:02 41.21784 -88.95544 10122 ft 317 kts 59°
2026-05-08 00:02 41.22703 -88.92968 10106 ft 302 kts 60°
2026-05-08 00:02 41.23565 -88.90454 9785 ft 298 kts 60°
2026-05-08 00:02 41.24415 -88.87991 9589 ft 289 kts 60°
2026-05-08 00:03 41.25254 -88.85586 9406 ft 286 kts 60°
2026-05-08 00:03 41.26097 -88.83190 9246 ft 287 kts 60°
2026-05-08 00:03 41.26943 -88.80787 9091 ft 289 kts 60°
2026-05-08 00:03 41.27800 -88.78355 8938 ft 291 kts 60°
2026-05-08 00:04 41.28656 -88.75920 8766 ft 291 kts 60°
2026-05-08 00:04 41.29510 -88.73486 8604 ft 290 kts 60°
2026-05-08 00:04 41.30361 -88.71061 8441 ft 289 kts 60°
2026-05-08 00:04 41.31209 -88.68640 8284 ft 288 kts 60°
2026-05-08 00:05 41.32052 -88.66232 8127 ft 287 kts 60°
2026-05-08 00:05 41.32893 -88.63829 7972 ft 286 kts 60°
2026-05-08 00:05 41.33730 -88.61433 7819 ft 285 kts 60°
2026-05-08 00:05 41.34563 -88.59051 7667 ft 284 kts 60°
2026-05-08 00:06 41.35394 -88.56673 7515 ft 283 kts 60°
2026-05-08 00:06 41.36224 -88.54293 7360 ft 282 kts 60°
2026-05-08 00:06 41.37049 -88.51926 7208 ft 282 kts 60°
2026-05-08 00:06 41.38006 -88.49687 7095 ft 275 kts 48°
2026-05-08 00:07 41.39184 -88.47713 7004 ft 270 kts 44°
2026-05-08 00:07 41.40390 -88.45810 6923 ft 268 kts 44°
2026-05-08 00:07 41.41589 -88.43913 6829 ft 269 kts 44°
2026-05-08 00:07 41.42776 -88.42014 6746 ft 271 kts 45°
2026-05-08 00:08 41.43981 -88.40065 6656 ft 274 kts 45°
2026-05-08 00:08 41.45188 -88.38095 6566 ft 274 kts 45°
2026-05-08 00:08 41.46390 -88.36123 6481 ft 274 kts 46°
2026-05-08 00:08 41.47588 -88.34150 6375 ft 273 kts 46°
2026-05-08 00:09 41.48779 -88.32186 6248 ft 271 kts 46°
2026-05-08 00:09 41.49958 -88.30237 6152 ft 269 kts 46°
2026-05-08 00:09 41.51107 -88.28266 6143 ft 270 kts 51°
2026-05-08 00:09 41.52116 -88.26139 6142 ft 272 kts 54°
2026-05-08 00:10 41.53088 -88.23973 6143 ft 272 kts 54°
2026-05-08 00:10 41.54062 -88.21807 6140 ft 272 kts 54°
2026-05-08 00:10 41.55049 -88.19645 6145 ft 272 kts 54°
2026-05-08 00:10 41.56041 -88.17487 6147 ft 272 kts 53°
2026-05-08 00:11 41.57035 -88.15335 6138 ft 273 kts 53°
2026-05-08 00:11 41.58020 -88.13204 6139 ft 273 kts 53°
2026-05-08 00:11 41.59023 -88.11036 6028 ft 275 kts 53°
2026-05-08 00:11 41.60027 -88.08864 5908 ft 274 kts 54°
2026-05-08 00:12 41.61020 -88.06709 5784 ft 271 kts 54°
2026-05-08 00:12 41.61995 -88.04590 5669 ft 267 kts 54°
2026-05-08 00:12 41.62970 -88.02471 5563 ft 266 kts 54°
2026-05-08 00:12 41.63939 -88.00364 5461 ft 266 kts 54°
2026-05-08 00:13 41.64594 -87.98941 5382 ft 266 kts 54°
2026-05-08 00:13 41.65876 -87.96151 5220 ft 265 kts 54°
2026-05-08 00:13 41.66840 -87.94052 5122 ft 264 kts 54°
2026-05-08 00:13 41.67799 -87.91962 4900 ft 265 kts 54°
2026-05-08 00:14 41.68758 -87.89871 4626 ft 262 kts 54°
2026-05-08 00:14 41.69707 -87.87798 4354 ft 259 kts 54°
2026-05-08 00:14 41.70644 -87.85753 4184 ft 260 kts 54°
2026-05-08 00:14 41.71593 -87.83683 4146 ft 262 kts 54°
2026-05-08 00:15 41.72524 -87.81643 4109 ft 249 kts 54°
2026-05-08 00:15 41.73400 -87.79721 4109 ft 234 kts 54°
2026-05-08 00:15 41.74217 -87.77930 4116 ft 226 kts 54°
2026-05-08 00:15 41.75044 -87.76118 4127 ft 225 kts 54°
2026-05-08 00:16 41.75557 -87.74157 4137 ft 232 kts 83°
2026-05-08 00:16 41.75636 -87.71989 4135 ft 234 kts 84°
2026-05-08 00:16 41.75722 -87.69802 4133 ft 236 kts 84°
2026-05-08 00:16 41.75850 -87.67594 4013 ft 242 kts 77°
2026-05-08 00:17 41.76425 -87.65520 3703 ft 230 kts 52°
2026-05-08 00:17 41.77467 -87.64076 3458 ft 205 kts 28°
2026-05-08 00:17 41.78695 -87.63357 3215 ft 182 kts
2026-05-08 00:17 41.79879 -87.63103 3022 ft 164 kts 357°
2026-05-08 00:18 41.80971 -87.63260 2846 ft 155 kts 340°
2026-05-08 00:18 41.81932 -87.63879 2646 ft 153 kts 322°
2026-05-08 00:18 41.82679 -87.64871 2454 ft 148 kts 304°
2026-05-08 00:18 41.83127 -87.66073 2251 ft 141 kts 288°
2026-05-08 00:19 41.83270 -87.67353 2066 ft 136 kts 272°
2026-05-08 00:19 41.83132 -87.68568 1920 ft 132 kts 259°
2026-05-08 00:19 41.82749 -87.69681 1769 ft 135 kts 245°
2026-05-08 00:19 41.82105 -87.70651 1674 ft 143 kts 230°
2026-05-08 00:20 41.81359 -87.71564 1410 ft 147 kts 229°
2026-05-08 00:20 41.80638 -87.72471 1147 ft 146 kts 226°
2026-05-08 00:20 41.79909 -87.73397 931 ft 143 kts 228°
2026-05-08 00:20 41.79194 -87.74300 689 ft 139 kts 226°
2026-05-08 00:21 41.78555 -87.75122 630 ft 107 kts 223°
2026-05-08 00:21 41.78172 -87.75611 634 ft 45 kts 223°
2026-05-08 00:21 41.78058 -87.75747 634 ft 10 kts 189°
2026-05-08 00:21 41.78006 -87.75694 628 ft 7 kts 133°
2026-05-08 00:22 41.77990 -87.75671 628 ft 3 kts 129°
2026-05-08 00:22 41.77992 -87.75641 628 ft 5 kts 61°
2026-05-08 00:22 41.78024 -87.75595 633 ft 9 kts 43°
2026-05-08 00:22 41.78077 -87.75527 631 ft 13 kts 43°
2026-05-08 00:23 41.78149 -87.75435 631 ft 16 kts 43°
2026-05-08 00:23 41.78236 -87.75325 636 ft 18 kts 43°
2026-05-08 00:23 41.78322 -87.75216 630 ft 17 kts 43°
2026-05-08 00:23 41.78407 -87.75109 632 ft 16 kts 44°
2026-05-08 00:24 41.78488 -87.75006 632 ft 16 kts 44°
2026-05-08 00:24 41.78566 -87.74907 632 ft 15 kts 43°
2026-05-08 00:24 41.78637 -87.74818 628 ft 12 kts 48°
2026-05-08 00:24 41.78708 -87.74768 630 ft 12 kts 34°
2026-05-08 00:25 41.78756 -87.74709 634 ft 5 kts 46°
2026-05-08 00:25 41.78756 -87.74667 635 ft 5 kts 128°
2026-05-08 00:25 41.78736 -87.74636 631 ft 4 kts 135°
2026-05-08 00:25 41.78718 -87.74612 628 ft 4 kts 135°
2026-05-08 00:26 41.78702 -87.74591 628 ft 1 kts 135°
2026-05-08 00:26 41.78702 -87.74590 628 ft 0 kts 135°